Theta_e
294 293 293 293 294 294 294 294 294 294 294 295 296 297 297 297 299 304 305 306 305 300 301 306 306 305 304 300 303 303 300 301 301 301 302 302 302 301 302 304 305 309 310 309 307 310 313 308 310 312 312 312 311 315
293 293 293 294 294 294 294 293 293 294 295 296 297 298 298 297 299 304 305 305 305 304 302 305 305 306 305 305 304 300 301 304 303 302 300 302 300 299 301 303 304 308 308 309 309 310 308 306 310 310 310 310 310 312
293 293 294 294 294 294 293 293 293 294 295 297 298 298 298 298 299 305 306 305 304 300 302 304 305 305 305 306 305 304 303 304 304 302 303 302 304 300 301 302 304 305 307 309 309 309 308 310 308 307 307 309 312 316
293 293 294 294 294 294 293 293 293 294 296 297 298 298 298 298 300 304 306 305 303 302 301 302 305 306 306 306 305 305 304 303 302 301 302 304 303 304 308 306 304 307 305 305 307 309 306 307 306 306 307 310 310 310
293 294 294 293 293 293 293 293 293 294 296 298 300 299 298 298 300 304 306 304 303 301 298 299 303 307 307 307 305 304 301 297 298 302 303 304 304 304 304 305 307 305 307 307 308 305 305 305 303 311 311 311 310 309
293 293 293 293 293 292 292 293 293 295 296 298 300 298 298 301 305 307 304 305 302 303 297 303 302 306 307 306 305 301 299 299 299 300 301 301 303 303 305 305 305 307 307 305 307 303 301 302 306 306 306 306 306 305
293 293 293 292 292 292 292 293 293 295 296 300 302 300 298 300 304 302 300 303 303 303 299 302 302 305 306 306 305 302 301 299 300 301 302 303 304 302 303 306 304 306 306 305 303 304 300 302 304 304 304 304 303 303
293 293 292 292 292 292 293 293 294 296 298 302 304 304 299 301 304 306 307 303 304 305 303 303 303 303 305 302 302 304 303 302 300 302 304 305 304 304 305 305 306 306 305 304 302 301 301 302 303 303 303 302 302 302
293 292 292 292 292 293 293 293 294 297 301 305 306 305 303 306 307 307 304 305 306 305 302 302 299 300 303 300 300 303 301 305 302 305 305 304 302 308 306 306 305 305 305 305 302 302 301 301 302 303 302 301 301 300
293 292 293 292 292 293 293 294 295 298 304 304 307 308 305 308 304 303 306 305 305 305 303 306 300 299 300 300 302 302 304 307 309 306 303 303 305 309 307 307 307 305 305 302 301 303 302 302 301 302 302 302 301 301
293 292 292 292 292 292 293 294 296 298 301 302 301 303 302 304 305 306 307 307 306 305 303 301 300 300 301 302 300 301 305 306 303 307 308 307 309 309 307 308 309 308 303 302 301 301 302 301 301 302 302 302 303 303
292 292 292 292 292 293 294 294 296 298 300 302 301 302 306 306 305 306 304 306 304 305 303 302 301 302 301 303 306 305 309 307 309 307 308 309 308 306 309 310 309 309 305 302 302 302 303 303 302 302 303 302 303 302
292 292 293 293 294 295 294 295 297 299 303 307 307 307 301 305 302 306 305 302 303 301 301 303 303 302 302 302 304 307 309 307 309 308 308 304 304 309 310 309 310 310 310 305 303 303 303 303 303 304 304 302 303 303
292 293 294 297 296 295 295 297 299 301 305 306 307 302 303 304 305 302 306 306 304 301 301 303 305 306 305 306 307 309 310 307 309 311 308 304 308 309 310 311 309 310 311 310 311 308 305 305 305 305 306 304 304 303
294 298 300 300 296 294 297 301 303 304 307 308 305 304 307 308 305 305 302 302 301 303 303 305 307 305 306 309 307 306 309 311 308 308 308 309 309 308 308 310 311 311 311 310 310 310 308 307 307 308 308 306 305 302
300 302 302 299 294 296 302 304 305 307 309 306 306 306 305 305 307 306 306 306 306 305 305 306 309 307 309 305 306 307 306 310 308 309 308 307 305 305 305 308 310 311 309 309 309 310 309 308 308 308 308 302 300 300
302 303 299 295 295 301 304 304 306 308 306 307 307 304 304 307 307 306 305 305 306 307 310 309 307 308 304 303 307 305 307 307 306 306 307 305 304 304 303 303 306 310 310 310 310 310 310 309 308 307 307 307 305 303
301 295 296 297 300 303 305 305 306 307 308 305 305 304 303 303 305 307 306 306 306 307 308 308 305 305 305 308 307 304 305 305 306 305 304 302 304 302 303 302 304 309 309 307 308 308 308 308 309 308 307 307 307 305
296 297 298 300 302 304 306 303 305 306 306 305 305 305 304 305 307 308 308 307 306 305 303 305 305 306 304 304 304 303 303 304 303 303 303 301 302 302 303 302 302 304 305 308 308 308 307 307 308 308 307 307 307 306
299 300 301 302 303 304 305 302 305 304 305 305 304 306 306 306 307 306 305 305 303 302 302 303 302 301 300 301 301 301 303 305 304 299 298 300 301 301 301 301 301 302 303 304 305 306 307 308 308 308 307 305 304 302
304 300 303 304 306 305 304 302 303 303 304 305 306 305 306 305 305 304 304 305 304 305 302 303 304 302 306 307 307 308 306 304 302 299 298 298 300 301 301 300 300 301 302 303 304 305 306 307 307 306 306 305 305 303
303 303 305 307 304 304 302 305 303 305 304 306 306 307 307 307 305 305 303 303 304 304 305 305 305 307 307 308 308 306 305 303 300 300 301 300 299 299 299 299 299 298 300 301 303 304 304 306 306 306 306 306 305 304
303 304 306 306 301 295 296 303 305 305 307 307 307 308 307 306 304 306 305 303 303 307 309 309 309 308 308 309 306 306 304 303 300 300 300 300 299 300 299 298 298 298 299 301 301 302 303 303 305 306 305 306 306 305
304 303 304 304 300 299 304 306 304 304 305 307 308 309 308 305 306 305 306 304 304 307 307 307 307 305 307 307 306 304 304 304 303 302 301 299 299 299 298 298 298 298 299 299 299 299 301 302 303 303 304 304 304 305
299 298 299 294 300 304 304 307 306 305 307 307 308 308 309 306 307 308 308 305 304 304 306 306 306 305 303 303 305 305 303 303 302 302 301 299 299 298 298 299 298 298 299 299 298 298 299 299 300 302 303 303 303 304
292 299 299 305 304 304 305 305 307 307 305 306 306 306 307 308 309 310 309 307 306 305 306 305 304 303 303 304 304 305 304 303 302 301 301 299 298 298 298 298 297 298 299 298 298 299 299 298 300 302 301 302 302 302
295 302 302 303 303 303 301 303 304 304 306 306 305 305 303 306 307 308 307 307 305 305 305 305 306 305 305 305 305 305 305 302 302 300 299 298 298 297 297 297 297 298 298 298 299 299 299 300 301 301 301 300 300 301
304 304 305 305 303 302 303 303 305 305 306 304 304 305 305 301 297 303 306 305 305 304 305 304 304 305 305 305 305 305 303 302 301 300 299 297 296 296 296 296 297 298 298 298 299 299 299 299 300 300 299 299 298 298
304 303 304 305 305 303 303 303 304 304 304 303 304 305 300 303 305 305 305 304 305 305 305 305 305 305 304 304 303 302 301 301 301 298 296 294 295 295 295 295 296 297 298 298 298 300 299 299 299 298 298 298 297 296
305 303 303 305 303 303 301 303 303 304 305 304 304 304 304 304 305 305 305 304 304 305 305 305 304 304 304 301 300 300 300 300 299 297 295 294 293 293 293 294 294 296 297 298 297 298 298 297 297 296 296 296 295 294
305 304 305 303 303 302 302 304 304 303 304 303 304 302 302 303 305 305 305 304 304 305 305 304 304 304 303 302 299 298 297 297 297 296 295 293 291 291 292 293 293 295 296 297 296 296 296 295 295 294 294 293 293 292
303 304 302 304 302 302 304 304 302 302 301 302 301 302 301 301 302 304 305 305 306 305 305 304 303 303 302 302 301 300 300 298 297 296 295 292 291 291 291 291 293 294 295 296 296 295 295 294 294 293 292 291 291 291
304 304 304 304 304 305 303 304 303 303 303 303 303 303 302 302 302 304 305 306 305 305 304 304 303 303 302 302 301 300 299 298 297 296 294 293 292 293 293 292 292 293 293 293 293 294 293 293 292 291 290 289 289 289
Wind_Speed
5 6 8 10 11 13 15 17 19 20 22 23 25 24 21 19 20 11 14 21 9 2 4 1 2 3 4 3 2 5 5 5 4 5 3 3 2 3 4 5 6 4 7 3 3 4 3 16 12 6 7 9 13 12
4 6 7 9 10 12 14 16 19 21 22 23 24 22 18 16 15 10 6 19 14 3 4 12 9 3 9 6 2 4 3 3 0 1 1 2 3 3 4 3 5 3 2 4 3 1 9 13 10 6 8 10 9 14
3 4 6 8 10 12 14 16 18 20 21 22 22 20 16 13 11 11 12 20 12 7 6 7 4 9 6 7 4 3 1 2 2 3 1 2 5 0 2 4 3 4 5 3 7 2 15 7 13 11 13 12 15 9
2 3 5 7 9 11 14 16 18 21 22 22 21 18 14 10 8 7 9 13 11 2 2 4 9 2 3 5 6 4 1 5 4 2 0 2 3 2 2 4 4 2 6 7 5 7 15 9 19 21 13 8 14 14
1 3 5 7 9 11 14 17 19 21 22 22 21 16 11 8 6 3 4 6 8 3 3 4 12 5 4 7 11 11 10 4 2 1 1 1 2 3 3 3 3 4 3 2 2 10 6 11 23 19 20 18 16 17
0 2 5 7 9 12 14 17 19 20 22 22 19 13 9 8 6 3 3 1 9 2 3 1 4 10 11 12 12 11 7 4 2 2 1 2 2 2 3 3 6 10 6 3 3 10 12 15 18 24 20 15 12 15
0 3 5 8 11 13 15 17 19 21 22 20 16 11 6 5 5 3 3 3 3 2 2 3 4 3 3 2 1 3 3 2 1 1 1 1 2 2 2 5 13 14 11 10 12 6 8 18 11 15 16 20 26 25
1 3 6 9 12 13 15 18 20 22 22 17 13 9 4 3 3 2 1 3 0 2 2 2 4 5 6 3 3 2 2 2 1 1 2 2 3 1 3 5 3 2 3 7 7 9 3 12 14 11 16 19 14 13
2 5 8 11 13 13 16 19 22 23 18 15 12 4 1 1 2 1 3 5 2 1 2 3 2 3 5 3 2 3 1 3 1 2 2 2 2 3 4 7 5 5 4 2 5 4 7 11 11 12 9 9 10 8
3 6 9 11 12 13 15 19 22 22 12 11 6 3 3 4 3 7 1 4 5 4 3 2 2 3 3 3 2 3 0 0 2 2 2 3 3 5 12 9 7 6 6 3 5 3 5 4 4 6 7 11 12 11
4 7 9 11 12 12 14 19 22 21 8 5 7 1 6 3 2 1 1 2 1 3 3 1 1 2 2 1 2 1 3 1 2 3 2 3 5 9 13 12 12 10 2 3 7 7 7 5 1 3 5 12 15 19
5 8 10 11 11 11 15 17 19 17 11 8 8 7 4 1 2 4 4 4 5 1 4 2 3 2 3 1 1 3 2 2 4 1 3 4 5 16 12 11 10 13 5 6 6 6 9 11 9 8 9 14 17 16
6 9 10 10 9 13 14 15 15 15 11 2 1 2 3 3 8 5 6 4 3 4 3 3 4 2 4 0 3 2 5 2 2 3 4 2 10 9 8 8 9 16 15 2 4 5 7 6 5 6 9 12 13 13
7 9 8 9 12 13 14 13 14 13 3 1 1 6 3 3 2 0 1 2 3 2 4 4 3 2 2 2 1 3 2 3 5 3 4 4 12 10 7 7 4 5 11 13 8 4 9 5 3 5 6 8 13 14
8 6 7 14 14 14 12 11 12 9 1 2 4 3 2 2 1 2 2 1 3 2 2 3 3 1 3 2 3 4 4 3 3 3 3 6 10 10 8 11 13 6 3 6 10 7 9 7 8 9 12 14 12 13
7 4 10 17 14 10 9 10 7 3 1 3 4 3 2 2 1 1 2 3 3 1 1 2 2 3 4 3 4 4 2 2 3 4 6 7 8 8 6 9 9 10 14 14 14 4 5 10 10 13 12 13 13 14
4 4 14 15 12 6 9 6 4 2 3 3 2 2 1 1 2 3 2 3 2 2 1 1 4 2 2 3 2 2 1 3 4 6 6 5 6 7 16 17 11 7 9 12 11 6 4 5 7 7 8 9 8 9
2 10 10 11 10 7 5 4 4 2 4 2 3 2 1 2 2 4 1 4 2 1 2 2 2 5 3 2 2 2 3 3 5 4 5 10 14 19 19 21 20 4 8 11 12 19 21 16 4 8 8 9 11 10
5 5 5 9 12 5 4 2 2 2 1 1 1 1 1 3 3 1 5 7 9 8 3 2 3 2 2 2 3 4 4 3 3 4 7 16 18 18 16 23 25 21 14 7 11 9 10 6 11 12 12 3 12 8
3 4 6 8 7 3 4 3 1 3 1 3 1 2 1 1 2 3 3 4 3 3 4 3 2 3 3 3 5 4 9 13 4 3 4 12 18 19 17 19 23 24 26 27 14 7 9 14 13 12 7 8 11 7
4 8 4 6 3 1 1 2 2 2 1 1 1 2 2 2 2 2 3 7 4 2 1 2 2 4 12 16 19 20 17 3 3 2 3 2 15 18 16 18 20 24 22 21 19 19 22 18 15 14 13 11 8 6
4 5 4 3 2 4 2 3 3 2 2 2 1 2 0 1 1 1 2 4 1 2 3 3 3 7 8 10 10 7 7 6 8 11 13 11 13 14 14 15 17 19 19 17 14 15 17 18 15 13 18 13 9 7
5 5 3 1 2 3 5 3 0 1 2 2 1 1 1 1 2 6 2 2 3 3 4 4 8 9 9 8 9 4 4 8 5 8 9 12 15 15 14 16 17 17 19 11 14 13 12 15 15 14 13 13 11 8
3 2 3 2 3 3 2 1 1 0 1 1 1 2 2 2 1 2 2 2 3 2 1 8 12 11 4 7 6 1 6 8 9 6 8 11 13 14 12 15 18 14 18 16 15 19 14 13 13 12 8 10 10 5
3 4 4 4 3 2 3 3 3 1 2 2 0 1 1 2 1 2 3 2 1 1 1 4 10 9 3 5 3 3 6 6 7 7 11 7 10 10 11 9 15 15 17 14 16 15 19 19 18 17 10 12 12 9
2 2 4 3 2 1 3 4 4 3 1 2 1 2 2 2 1 2 3 1 2 2 2 3 2 3 6 7 6 9 2 5 6 9 9 11 10 11 9 9 11 13 11 15 15 18 16 12 14 11 13 13 11 10
1 4 4 5 1 3 4 2 1 2 1 2 1 1 2 2 2 1 4 5 3 3 1 4 3 2 7 11 12 12 4 5 9 11 17 13 12 12 12 14 14 8 13 15 16 20 17 12 7 10 14 16 17 15
4 2 1 2 2 2 0 2 1 1 3 3 3 3 2 4 4 3 6 4 1 3 3 3 4 8 11 13 16 12 13 11 10 14 14 13 13 11 10 9 13 8 15 15 19 19 8 6 9 15 17 19 22 20
3 3 2 2 2 1 1 1 2 1 5 3 4 3 3 2 3 1 2 5 4 6 5 8 6 5 12 15 10 15 15 10 11 10 5 5 10 11 12 9 10 12 12 12 15 17 13 14 15 14 15 18 17 19
3 1 2 1 2 2 3 3 0 1 5 6 3 2 1 3 8 7 9 6 5 7 9 1 3 3 6 18 17 15 11 10 10 7 1 3 6 8 10 7 10 11 14 6 10 9 10 10 10 12 14 15 18 20
2 4 1 2 2 2 3 2 2 4 2 0 2 3 3 4 4 7 11 9 6 5 7 3 3 4 7 14 20 15 10 5 6 8 7 6 6 6 5 7 8 9 13 8 6 8 9 12 13 14 14 14 16 18
2 1 2 3 3 4 7 2 1 2 2 1 2 1 2 2 1 3 5 5 2 6 3 3 9 11 10 9 6 4 3 7 5 8 10 8 7 8 9 8 8 11 15 6 5 6 7 7 9 10 11 11 11 12
2 0 1 2 2 2 3 1 2 3 3 3 4 4 4 5 4 6 3 1 3 6 8 7 8 6 5 2 3 5 7 7 5 8 10 8 8 9 12 12 10 12 12 14 16 11 8 9 10 10 10 10 10 11
Wind_Direction
47 37 29 24 23 24 23 21 16 15 13 14 14 13 15 21 27 60 42 24 34 136 279 151 68 332 358 56 49 284 13 10 15 33 35 325 312 289 312 280 280 329 327 318 336 322 345 337 333 12 313 308 316 313
50 35 27 25 26 24 21 15 13 12 10 11 10 10 14 21 28 46 27 24 10 144 241 298 314 7 108 121 162 2 182 4 313 48 42 291 286 296 287 286 347 332 309 310 313 303 265 274 288 339 314 315 297 299
51 30 27 26 22 18 12 10 8 6 6 8 7 10 12 20 30 52 34 16 15 31 346 54 36 118 38 23 70 88 289 250 131 148 206 236 265 252 286 268 307 306 348 297 319 222 325 327 342 324 325 314 323 116
59 29 24 19 14 9 5 3 2 2 2 2 3 4 10 22 32 47 42 26 22 59 95 278 18 24 107 93 100 69 55 49 68 41 21 274 268 331 274 290 298 350 303 321 282 319 322 350 327 318 290 256 85 59
64 24 12 4 2 358 357 357 358 358 356 356 357 357 1 22 21 21 55 61 26 65 194 285 327 320 61 107 93 49 70 60 43 59 318 290 293 315 290 280 318 301 293 329 318 4 336 314 318 53 50 63 80 83
82 5 356 353 350 349 351 352 354 353 352 353 355 353 355 19 23 86 48 351 351 40 82 48 336 25 101 122 96 74 84 59 52 15 319 289 252 356 316 313 315 343 57 10 331 49 16 331 38 51 67 71 65 75
282 349 348 347 345 345 347 349 348 349 351 350 352 349 350 9 19 41 163 352 61 17 73 354 6 343 12 90 86 76 76 100 86 302 288 280 279 43 283 0 357 33 34 40 35 40 1 18 33 33 52 64 68 68
294 339 342 343 344 344 345 346 346 348 348 342 344 347 349 337 346 2 347 340 190 345 73 63 304 2 17 359 354 18 356 125 10 301 311 311 309 320 10 307 323 1 24 40 52 84 55 27 47 42 47 66 66 62
308 331 335 339 343 344 346 347 347 349 346 341 340 321 59 18 5 175 105 111 42 38 92 62 46 290 3 353 309 339 62 12 273 3 330 20 320 30 301 314 311 286 327 63 82 41 73 55 24 33 38 50 67 56
315 326 332 339 343 345 348 350 349 353 354 349 16 31 19 353 328 133 108 19 21 19 48 79 34 305 58 342 308 357 329 307 13 289 83 31 319 334 350 333 2 313 300 66 83 68 48 36 353 349 14 39 55 59
317 327 335 340 343 346 351 352 351 357 4 24 8 21 329 243 270 199 82 68 348 37 20 326 135 288 301 36 293 227 292 240 43 306 66 350 1 340 333 333 339 352 7 75 81 106 153 149 164 359 29 62 62 68
326 333 338 341 343 348 350 353 350 359 351 314 293 306 306 294 24 56 360 12 48 5 332 353 281 230 290 155 297 288 277 9 23 12 30 12 328 320 328 332 343 3 39 105 98 94 100 112 115 102 94 95 89 90
332 337 341 344 345 344 346 349 347 343 347 346 338 341 58 353 37 40 356 324 340 347 6 315 323 303 325 72 285 334 29 14 54 11 10 312 293 346 324 327 339 6 20 120 144 134 126 122 121 121 118 103 99 84
336 342 353 355 344 343 344 345 341 344 317 53 101 16 86 9 44 238 299 288 280 253 295 308 278 272 276 346 274 43 12 59 4 18 358 309 326 325 360 12 352 347 359 0 15 104 165 152 143 106 96 135 109 96
345 346 351 352 349 342 338 340 331 326 310 338 60 46 54 129 151 191 218 267 253 222 233 295 279 174 300 358 34 25 32 34 348 339 290 298 308 328 360 8 20 23 15 65 31 24 103 138 92 78 92 100 111 110
355 345 350 343 339 340 341 340 339 335 297 74 49 34 38 57 291 260 259 265 247 230 242 234 271 359 17 55 45 16 40 351 320 312 291 302 317 323 332 351 20 52 71 85 64 69 113 120 117 118 119 111 118 122
4 347 332 339 338 336 335 349 343 283 65 62 53 49 130 114 264 257 216 251 263 359 309 21 46 8 355 64 54 7 312 278 258 295 300 300 303 312 344 3 12 36 83 101 88 22 88 150 144 148 160 168 155 150
314 342 336 344 352 345 349 355 352 53 65 13 93 254 208 195 255 293 267 322 156 258 27 59 86 40 50 41 9 264 252 278 267 258 278 331 345 358 13 18 33 57 34 51 62 51 32 20 326 246 240 208 204 206
331 353 9 359 358 349 348 2 42 93 171 183 234 277 203 266 305 70 96 55 62 80 86 61 73 76 130 216 228 265 267 252 274 294 305 353 0 15 36 49 46 42 26 41 60 64 68 33 359 17 24 212 198 234
4 26 1 343 355 356 337 329 31 97 127 238 78 349 268 243 294 81 55 69 70 77 50 59 160 204 195 238 221 249 277 282 273 335 323 1 27 34 48 53 46 37 37 33 24 47 34 27 18 7 33 77 57 60
31 3 356 352 347 314 276 301 6 164 131 101 199 85 295 5 59 37 12 13 49 59 74 204 222 248 254 264 275 282 283 317 165 212 249 336 31 42 60 48 44 39 41 37 28 26 35 29 32 42 37 20 358 112
342 341 328 347 335 12 341 268 178 211 93 217 82 122 47 336 250 206 139 41 43 239 190 191 220 230 255 274 281 298 358 91 44 43 52 59 39 46 66 49 41 36 32 34 32 27 24 23 18 32 60 46 30 49
356 343 311 284 54 45 262 296 92 182 125 249 61 139 247 244 225 140 65 211 242 240 241 266 282 283 252 250 222 275 43 62 84 42 57 75 58 66 81 52 38 33 21 17 26 25 17 15 14 20 13 12 27 45
337 334 347 315 138 248 272 274 247 235 124 81 217 239 202 213 66 76 153 238 248 248 12 344 345 8 132 176 192 142 107 72 51 38 37 100 82 71 93 59 38 27 19 13 15 7 1 3 11 9 29 34 23 357
54 317 94 296 256 289 251 168 178 177 161 242 157 316 345 356 148 186 177 243 234 173 301 344 50 44 69 31 59 118 126 91 65 15 21 113 96 75 62 55 33 28 19 32 9 3 3 4 11 14 13 25 24 40
92 238 149 262 289 92 352 23 41 31 354 324 247 158 99 282 287 68 327 319 211 162 28 50 71 28 344 340 328 347 289 128 60 32 47 116 82 72 61 44 18 13 25 12 10 4 357 357 10 34 24 29 22 25
343 261 223 234 106 72 11 29 61 82 289 237 245 59 57 28 32 307 328 233 199 34 10 337 284 315 304 309 323 329 38 120 72 101 113 87 76 64 52 36 18 31 9 2 2 351 342 8 32 16 24 27 28 25
251 292 109 186 81 113 313 299 331 8 63 345 16 350 335 176 223 228 203 181 3 3 349 319 298 304 309 306 311 317 129 118 107 114 105 84 64 52 39 31 24 23 7 17 11 5 359 7 58 57 52 59 50 49
263 276 106 204 102 151 222 235 319 91 161 134 150 215 238 225 231 246 275 299 291 234 275 296 348 31 45 87 80 108 118 116 95 72 40 358 4 9 8 358 17 18 4 7 26 45 57 83 64 63 53 56 57 46
264 112 91 62 148 225 243 149 244 189 185 197 204 128 165 246 235 266 253 278 281 303 257 302 103 22 91 121 106 93 88 81 67 61 58 339 345 338 342 4 14 4 11 8 42 56 53 56 58 47 42 49 48 47
350 38 58 179 246 251 233 348 328 308 323 101 16 138 217 252 279 265 248 251 263 280 184 152 56 148 120 121 131 127 121 98 68 63 38 4 342 351 355 352 349 350 14 40 67 61 68 68 64 60 52 45 42 47
10 114 89 353 313 299 345 345 237 208 257 225 268 228 334 34 283 263 231 275 220 154 131 121 118 108 115 115 126 124 117 145 96 46 30 32 47 39 24 27 36 34 36 74 77 73 87 72 62 52 48 39 35 34
110 89 295 274 293 276 286 173 273 269 234 222 238 207 206 181 217 243 218 297 228 198 168 156 158 153 159 129 152 177 176 149 96 55 52 68 77 56 46 47 46 38 36 53 59 71 72 77 67 51 41 38 32 30